Main page
METAR-TAF:

METAR-TAF

Airports :

Ardabil Airport

Ardabil, Iran

latitude: 38-19-35N, longitude: 048-25-28E, elevation: 1315 m

Current weather observation

The report was made 7 hours and 38 minutes ago, at 14:00 UTC
Wind 14 kt from the East
Temperature 11°C
Humidity 87%
Pressure 1025 hPa
Visibility: 3000 m
Broken clouds at a height of 400 ft
fog in vicinity

METAR: OITL 171400Z 08014KT 9999 3000E VCFG BKN004 11/09 Q1025

Time: 01:08 (21:38 UTC)


TAF: missing

Weather observations and forecasts of more than 4000 airports (METAR and TAF reports).

The available stations are represented by yellow and red dots on the map.

Hover mouse over dot to see the name of the station.

Then click to see weather observations and forecasts.

To change the map : click on the green buttons with a black cross to zoom in, on the green button with a dash to zoom out, or on the green arrows for adjacent maps.


METAR-TAF: